Location: Luxembourg
(49.6117°N, 6.1300°E)
Time: 01:08:48
(UTC+01:00)

Tiangong - Pass Details

Date: 12 December 2021
Orbit: 383 x 386 km, 41.5° (Epoch: 23 January)

Event Time Altitude Azimuth Distance (km) Brightness Sun altitude
Rises 17:29:15 0° 216° (SW) 2,272 6.2 -8.3°
Reaches altitude 10° 17:32:26 10° 182° (S) 1,418 4.3 -8.8°
Maximum altitude 17:33:37 12° 160° (SSE) 1,326 3.9 -8.9°
Drops below altitude 10° 17:34:48 10° 138° (SE) 1,418 3.8 -9.1°
Enters shadow 17:36:39 - 114° (ESE) 1,852 4.1 -9.4°
